Location: Emblem
(62.4273°N, 6.4710°E)
Time: 23:10:10
(UTC+01:00)

Transit 2A Rocket - Pass Details

Date: 08 October 2024
Orbit: 584 x 906 km, 66.7° (Epoch: 05 November)

Event Time Altitude Azimuth Distance (km) Brightness Sun altitude
Rises 01:35:10 0° 296° (WNW) 3,526 8.7 -33.5°
Reaches altitude 10° 01:37:45 10° 298° (WNW) 2,563 7.9 -33.5°
Enters shadow 01:40:47 31° 304° (NW) 1,495 6.6 -33.4°
